[[{"header":{"parameterUnit":"m.s-1","parameterCategory":1,"la1":30.2991,"la2":30.254,"lo1":-89.0895,"lo2":-89.0444,"dy":0.0017,"dx":0.0017,"nx":28,"ny":28,"refTime":"2024-08-05T09:00:00:Z","depth":0,"parameterNumber":2,"parameterNumberName":"U-component_of_WINDS"},"data":[0,0,0,0,0,0,0,0,0,0,0,0,0,0,0,0,0,0,0,0,0,0,0,0,0,0,0,0,0,0,0,0,0,0,0,0,0,0,0,0,0,0,0,0,0,0,0,0,0,0,0,0,0,0,0,0,0,0,0.6267,0.6269,0,0.6382,0.6383,0.6385,0.6378,0.6376,0.6375,0.6373,0.6495,0.65,0.6505,0,0,0,0,0,0,0,0,0,0,0,0,0,0.605,0.6054,0.6267,0.6269,0.627,0.6382,0.6383,0.6385,0.6378,0.6376,0.6374,0.6372,0.6494,0.6499,0.6505,0,0,0,0,0,0,0,0,0,0,0,0,0,0.6153,0.6055,0.6267,0.628,0.6282,0.6381,0.6383,0.6385,0.6379,0.6376,0.6374,0.6371,0.6492,0.6499,0.6506,0.6601,0,0,0.6528,0.6531,0,0,0,0,0,0,0,0,0.6147,0.6161,0.6277,0.6279,0.6282,0.6363,0.6352,0.6458,0.6379,0.6342,0.6373,0.637,0.6454,0.6464,0.6491,0.6606,0.6612,0.6529,0.6533,0.6536,0.6538,0,0,0,0,0,0,0,0.614,0.6156,0.6313,0.6279,0.6282,0.6283,0.6295,0.6372,0.6411,0.6345,0.6345,0.6358,0.6455,0.6484,0.6494,0.6614,0.6528,0.6535,0.6539,0.6542,0.6819,0.6822,0,0,0,0,0,0,0.6129,0.615,0.6309,0.6316,0.6207,0.6289,0.6302,0.634,0.641,0.6418,0.636,0.6358,0.6473,0.6485,0.6498,0.6618,0.6536,0.6543,0.6547,0.6816,0.6819,0.6823,0,0,0,0,0,0,0.6124,0.6143,0.6305,0.6233,0.6254,0.6295,0.6338,0.6343,0.6373,0.6421,0.6429,0.6383,0.6471,0.6488,0.6576,0.6622,0.6546,0.6553,0.6812,0.6817,0.6821,0.6856,0,0,0,0,0,0,0.6118,0.6141,0.6176,0.6234,0.6257,0.6379,0.634,0.6347,0.6385,0.6382,0.6444,0.6452,0.6471,0.6566,0.6583,0.6631,0.6558,0.6808,0.6814,0.682,0.6851,0.6861,0.687,0,0,0,0,0,0.611,0.6181,0.6178,0.6197,0.6301,0.6381,0.6395,0.6413,0.6388,0.6425,0.6457,0.645,0.6613,0.6575,0.6595,0.6645,0.6806,0.6813,0.6819,0.6847,0.6859,0.687,0,0,0,0,0,0,0.6129,0.6189,0.6186,0.6277,0.6324,0.638,0.6427,0.6425,0.6481,0.6477,0.6499,0.6513,0.6603,0.6632,0.6588,0.6743,0.6707,0.6718,0.6721,0.6733,0.6742,0.6735,0.6564,0,0,0,0,0,0.6143,0.6201,0.6251,0.6327,0.6351,0.6385,0.642,0.643,0.6481,0.6501,0.6539,0.659,0.6653,0.6694,0.6754,0.6855,0.6871,0.6899,0.6909,0.6916,0.6927,0.6987,0.7002,0.6845,0.6845,0.6845,0,0,0.6174,0.6214,0.625,0.6332,0.637,0.6433,0.6402,0.6468,0.6516,0.6511,0.6598,0.6628,0.6686,0.6783,0.6827,0.681,0.6974,0.6925,0.6931,0.6937,0.6996,0.7011,0.7024,0.685,0.6849,0.6848,0,0,0.6263,0.6297,0.6367,0.6406,0.6463,0.6485,0.6502,0.6559,0.6579,0.6666,0.6665,0.6723,0.683,0.6873,0.6909,0.7018,0.7016,0.7037,0.7088,0.7146,0.7159,0.717,0.7214,0.7229,0.7047,0.7047,0.7047,0,0.6296,0.6388,0.6403,0.6471,0.651,0.6508,0.6581,0.6618,0.6692,0.672,0.67,0.6837,0.6875,0.6984,0.7011,0.7038,0.7062,0.7031,0.7155,0.7167,0.7178,0.722,0.7236,0.7049,0.7049,0.7049,0.7048,0,0.6427,0.6491,0.654,0.6613,0.6656,0.6726,0.6755,0.6798,0.6805,0.6831,0.6922,0.6969,0.7041,0.7066,0.7073,0.7178,0.7166,0.715,0.7115,0.7195,0.7235,0.7251,0.7053,0.7052,0.7051,0.7051,0,0,0.6531,0.6612,0.6631,0.6665,0.673,0.6781,0.6853,0.6922,0.6961,0.7013,0.7077,0.7168,0.7155,0.7196,0.7208,0.7259,0.7349,0.7238,0.724,0.7261,0.7473,0.7488,0.7506,0.7347,0.735,0.7352,0.747,0,0.6631,0.6756,0.6773,0.6886,0.6948,0.6949,0.7012,0.706,0.7086,0.7145,0.7175,0.7242,0.7217,0.7242,0.7292,0.7327,0.7393,0.7319,0.7411,0.7414,0.74,0.7526,0.7541,0.7649,0.7485,0.7487,0.7489,0,0.6763,0.6819,0.6938,0.6997,0.7024,0.708,0.7148,0.7203,0.7259,0.7275,0.7322,0.7329,0.7407,0.7366,0.7477,0.7426,0.7465,0.7488,0.7493,0.7505,0.7459,0.7546,0.7684,0.7702,0.7513,0.7511,0.751,0,0.6833,0.6938,0.7024,0.7053,0.7123,0.7164,0.7195,0.7249,0.7291,0.735,0.7379,0.7447,0.7485,0.7539,0.7566,0.7532,0.7677,0.7636,0.7697,0.7696,0.773,0.7728,0.788,0.7747,0.7747,0.7747,0.7746,0,0.6945,0.7019,0.7057,0.711,0.7195,0.7215,0.7299,0.7329,0.7377,0.7439,0.7443,0.7501,0.753,0.7595,0.7616,0.7707,0.7723,0.7742,0.7747,0.7744,0.7742,0.7772,0.7767,0.7751,0.775,0.7749,0.7748,0,0.7039,0.7067,0.7161,0.722,0.7237,0.7297,0.7349,0.7403,0.7429,0.7508,0.7528,0.757,0.7646,0.7677,0.777,0.7784,0.7891,0.7889,0.7872,0.7875,0.7935,0.7931,0.8115,0.8143,0.7988,0.7989,0.799,0,0.711,0.7167,0.7233,0.7274,0.7307,0.7372,0.7416,0.7439,0.7485,0.7555,0.7602,0.7677,0.7739,0.7861,0.7902,0.7974,0.7977,0.8036,0.7988,0.7984,0.7984,0.7982,0.799,0.8046,0.8048,0.8049,0.805,0,0.7235,0.7247,0.7308,0.7376,0.7428,0.7482,0.7536,0.757,0.7602,0.7654,0.7731,0.7779,0.7875,0.7952,0.8027,0.8063,0.8064,0.8065,0.8083,0.8083,0.8073,0.8084,0.7902,0.8061,0.806,0.8059,0.8059,0.8058,0.7324,0.7376,0.7431,0.7501,0.7544,0.7594,0.7649,0.7683,0.7747,0.7826,0.7836,0.7921,0.798,0.8081,0.8119,0.8188,0.8173,0.8199,0.8206,0.8214,0.822,0.8058,0.8201,0.8201,0.8201,0.82,0.82,0,0.7453,0.7489,0.7553,0.7628,0.7684,0.7677,0.7737,0.7786,0.7859,0.7913,0.7975,0.8066,0.8141,0.8189,0.8266,0.8312,0.8315,0.8332,0.8331,0.8341,0.8226,0.8205,0.8329,0.8329,0.8329,0.8328,0.8328,0.8328,0.7528,0.7618,0.7637,0.775,0.7786,0.7867,0.7903,0.7952,0.7995,0.8097,0.8159,0.8189,0.8242,0.8323,0.8394,0.8406,0.8436,0.8455,0.8467,0.8361,0.8348,0.8335,0.8315,0.846,0.846,0.8576,0.8578,0.8578]},{"header":{"parameterUnit":"m.s-1","parameterCategory":1,"la1":30.2991,"la2":30.254,"lo1":-89.0895,"lo2":-89.0444,"dy":0.0017,"dx":0.0017,"nx":28,"ny":28,"refTime":"2024-08-05T09:00:00:Z","depth":0,"parameterNumber":3,"parameterNumberName":"V-component_of_WINDS"},"data":[0,0,0,0,0,0,0,0,0,0,0,0,0,0,0,0,0,0,0,0,0,0,0,0,0,0,0,0,0,0,0,0,0,0,0,0,0,0,0,0,0,0,0,0,0,0,0,0,0,0,0,0,0,0,0,0,0,0,-2.6946,-2.6946,0,-2.6945,-2.6945,-2.6945,-2.705,-2.7053,-2.7056,-2.7059,-2.7052,-2.7049,-2.7047,0,0,0,0,0,0,0,0,0,0,0,0,0,-2.7035,-2.7033,-2.6946,-2.6946,-2.6946,-2.6945,-2.6945,-2.6945,-2.705,-2.7053,-2.7057,-2.706,-2.7053,-2.705,-2.7046,0,0,0,0,0,0,0,0,0,0,0,0,0,-2.7011,-2.7033,-2.6946,-2.6998,-2.7003,-2.6945,-2.6945,-2.6945,-2.7049,-2.7053,-2.7058,-2.7062,-2.7054,-2.705,-2.7046,-2.6936,0,0,-2.7033,-2.7031,0,0,0,0,0,0,0,0,-2.7013,-2.7008,-2.6991,-2.6995,-2.7,-2.7002,-2.6974,-2.6942,-2.7048,-2.7031,-2.7059,-2.7064,-2.7032,-2.703,-2.702,-2.6936,-2.6935,-2.7033,-2.703,-2.7028,-2.7027,0,0,0,0,0,0,0,-2.7014,-2.7009,-2.6945,-2.699,-2.6996,-2.7021,-2.7022,-2.6969,-2.7008,-2.7033,-2.7041,-2.704,-2.7035,-2.7024,-2.7021,-2.6935,-2.7033,-2.7029,-2.7027,-2.7025,-2.6762,-2.6758,0,0,0,0,0,0,-2.7009,-2.7009,-2.6946,-2.6945,-2.7017,-2.7016,-2.7017,-2.6997,-2.7009,-2.7015,-2.7036,-2.7045,-2.7029,-2.7025,-2.7021,-2.6893,-2.7028,-2.7025,-2.7022,-2.6767,-2.6761,-2.6756,0,0,0,0,0,0,-2.7011,-2.7003,-2.6946,-2.698,-2.6974,-2.701,-2.6986,-2.6995,-2.6984,-2.7011,-2.7018,-2.7018,-2.7032,-2.7027,-2.6957,-2.6895,-2.7023,-2.7019,-2.6772,-2.6765,-2.6759,-2.6637,0,0,0,0,0,0,-2.7013,-2.7003,-2.6962,-2.6978,-2.6972,-2.6882,-2.6983,-2.6992,-2.6977,-2.6988,-2.6996,-2.7001,-2.7035,-2.6963,-2.6953,-2.6891,-2.7016,-2.6777,-2.6769,-2.6761,-2.6646,-2.6627,-2.661,0,0,0,0,0,-2.7016,-2.6926,-2.6959,-2.6951,-2.6922,-2.6878,-2.6875,-2.6918,-2.6972,-2.693,-2.6948,-2.7,-2.6904,-2.6955,-2.6944,-2.688,-2.6782,-2.6771,-2.6761,-2.6655,-2.6631,-2.661,0,0,0,0,0,0,-2.6898,-2.6929,-2.6966,-2.6879,-2.6875,-2.6896,-2.6845,-2.689,-2.687,-2.6881,-2.6934,-2.6935,-2.6856,-2.6862,-2.6918,-2.6776,-2.6852,-2.6839,-2.6774,-2.6752,-2.6734,-2.6733,-2.7012,0,0,0,0,0,-2.6863,-2.6826,-2.6854,-2.6774,-2.6771,-2.6808,-2.6791,-2.6825,-2.6823,-2.6821,-2.6834,-2.6828,-2.6798,-2.6775,-2.6748,-2.6649,-2.6652,-2.66,-2.6582,-2.6567,-2.6554,-2.6503,-2.6481,-2.6723,-2.6723,-2.6723,0,0,-2.6787,-2.68,-2.6773,-2.6751,-2.6753,-2.6713,-2.6806,-2.676,-2.673,-2.6814,-2.6749,-2.6758,-2.6756,-2.6671,-2.6635,-2.6674,-2.6489,-2.6554,-2.6542,-2.6538,-2.6491,-2.6468,-2.6447,-2.6716,-2.6718,-2.6719,0,0,-2.663,-2.6636,-2.6571,-2.6572,-2.6574,-2.66,-2.6584,-2.6599,-2.6609,-2.6546,-2.6608,-2.6573,-2.6518,-2.6514,-2.6505,-2.635,-2.6397,-2.634,-2.6243,-2.6192,-2.6173,-2.6157,-2.6101,-2.608,-2.6328,-2.6328,-2.6327,0,-2.6535,-2.6479,-2.6531,-2.6481,-2.647,-2.6547,-2.6481,-2.6478,-2.647,-2.646,-2.6505,-2.6439,-2.6442,-2.6358,-2.6321,-2.6311,-2.6294,-2.6338,-2.6172,-2.6156,-2.6141,-2.6089,-2.6068,-2.632,-2.6321,-2.6322,-2.6323,0,-2.6363,-2.6324,-2.6271,-2.6264,-2.6247,-2.6189,-2.6231,-2.6208,-2.6244,-2.6265,-2.62,-2.6208,-2.6184,-2.6167,-2.62,-2.6088,-2.6112,-2.6164,-2.6241,-2.611,-2.6062,-2.6042,-2.631,-2.6313,-2.6315,-2.6317,0,0,-2.6128,-2.6154,-2.6133,-2.6132,-2.6142,-2.6112,-2.6058,-2.6037,-2.6016,-2.6009,-2.5964,-2.5917,-2.5966,-2.5955,-2.599,-2.5946,-2.5823,-2.6003,-2.6004,-2.5968,-2.5699,-2.5659,-2.5635,-2.5855,-2.5852,-2.5849,-2.5699,0,-2.5975,-2.5886,-2.5932,-2.5837,-2.5801,-2.5875,-2.5829,-2.5829,-2.5848,-2.5819,-2.584,-2.5806,-2.5873,-2.5867,-2.5827,-2.5846,-2.5769,-2.5858,-2.5813,-2.581,-2.5809,-2.561,-2.5567,-2.5425,-2.568,-2.5677,-2.5675,0,-2.5784,-2.5772,-2.5673,-2.5692,-2.5679,-2.5636,-2.5622,-2.5594,-2.5596,-2.5614,-2.5603,-2.5649,-2.5597,-2.5676,-2.5604,-2.5664,-2.5649,-2.5655,-2.5651,-2.5647,-2.5733,-2.5599,-2.5381,-2.5359,-2.5646,-2.5648,-2.565,0,-2.5621,-2.558,-2.5517,-2.5514,-2.5534,-2.5502,-2.5509,-2.5516,-2.5501,-2.5489,-2.548,-2.546,-2.5448,-2.5432,-2.5471,-2.5525,-2.5394,-2.5476,-2.5406,-2.5404,-2.5373,-2.5374,-2.5147,-2.5365,-2.5365,-2.5366,-2.5366,0,-2.5445,-2.5381,-2.5444,-2.5405,-2.5336,-2.5391,-2.5321,-2.5335,-2.5341,-2.5305,-2.5369,-2.5333,-2.5388,-2.5357,-2.5388,-2.5324,-2.5318,-2.533,-2.5338,-2.5323,-2.5321,-2.5312,-2.5322,-2.536,-2.5361,-2.5363,-2.5364,0,-2.525,-2.529,-2.5225,-2.5252,-2.5257,-2.5205,-2.5227,-2.5191,-2.5217,-2.517,-2.5162,-2.52,-2.5168,-2.5207,-2.5177,-2.5198,-2.5111,-2.5135,-2.511,-2.5117,-2.5044,-2.505,-2.4802,-2.4773,-2.501,-2.5008,-2.5006,0,-2.5133,-2.5087,-2.511,-2.5092,-2.5096,-2.5065,-2.5051,-2.5104,-2.5087,-2.5088,-2.5051,-2.5026,-2.5007,-2.4953,-2.4977,-2.4955,-2.4978,-2.4893,-2.4974,-2.4961,-2.4975,-2.4977,-2.4973,-2.4875,-2.4872,-2.487,-2.4868,0,-2.4922,-2.4946,-2.4925,-2.4911,-2.4894,-2.4885,-2.4881,-2.4862,-2.4917,-2.4894,-2.4864,-2.485,-2.4822,-2.4795,-2.4781,-2.4787,-2.4835,-2.4843,-2.4825,-2.4808,-2.4796,-2.4801,-2.5063,-2.4847,-2.4849,-2.4851,-2.4852,-2.4853,-2.4763,-2.4726,-2.4737,-2.4712,-2.4715,-2.471,-2.4679,-2.4701,-2.4678,-2.466,-2.4693,-2.4654,-2.466,-2.4646,-2.4647,-2.4616,-2.4653,-2.4627,-2.462,-2.4613,-2.4602,-2.4803,-2.4614,-2.4615,-2.4615,-2.4616,-2.4616,0,-2.4554,-2.4566,-2.4543,-2.4537,-2.4518,-2.457,-2.4568,-2.4548,-2.4514,-2.4516,-2.4498,-2.4464,-2.4439,-2.4463,-2.4442,-2.4414,-2.4436,-2.4406,-2.4408,-2.4408,-2.4571,-2.4588,-2.4389,-2.4389,-2.4389,-2.4389,-2.4389,-2.4389,-2.4443,-2.4384,-2.4408,-2.4351,-2.4363,-2.4328,-2.4323,-2.4319,-2.4321,-2.4281,-2.4262,-2.4279,-2.4289,-2.4271,-2.425,-2.4258,-2.4247,-2.4209,-2.4224,-2.4375,-2.4397,-2.4418,-2.4434,-2.4207,-2.4206,-2.4065,-2.4063,-2.4062]}]]